Hourly Data Report for November 26, 2016

CARBERRY CS
MANITOBA

49°54'20.900" N
99°21'26.800" W
383.50 m
5010547
71170
WZE

Download Data

Hourly Data (November 2016)
Hourly Data Report for November 26, 2016
TIME
LST
Temp Definition
°C
Dew Point Definition
°C
Rel Hum Definition
%
Precip. Amount Definition
mm

Wind Dir Definition
10's deg

Wind Spd Definition
km/h
Visibility Definition
km
Stn Press Definition
kPa
Hmdx Definition


Wind Chill Definition


Weather Definition


00:00 -3.2 -3.8 96 0.0 16 7   96.82   -6 LegendNANA
01:00 -3.2 -4.2 93 0.0 19 8   96.79   -6 LegendNANA
02:00 -3.0 -4.3 91 0.0 18 9   96.76   -7 LegendNANA
03:00 -3.5 -5.0 90 0.0 19 8   96.78   -7 LegendNANA
04:00 -2.9 -4.7 87 0.0 23 9   96.81   -6 LegendNANA
05:00 -2.6 -4.4 88 0.0 23 8   96.78   -6 LegendNANA
06:00 -3.4 -5.2 87 0.0 25 12   96.81   -8 LegendNANA
07:00 -3.6 -5.3 88 0.0 26 18   96.80   -9 LegendNANA
08:00 -3.7 -5.5 87 0.0 25 16   96.84   -9 LegendNANA
09:00 -3.0 -5.3 84 0.0 26 17   96.85   -9 LegendNANA
10:00 -1.3 -4.1 81 0.0 26 14   96.88   -6 LegendNANA
11:00 1.2 -2.7 75 0.0 27 19   96.89     LegendNANA
12:00 4.0 -1.8 66 0.0 26 16   96.87     LegendNANA
13:00 4.9 -1.8 62 0.0 26 11   96.85     LegendNANA
14:00 6.5 -1.5 57 0.0 25 10   96.83     LegendNANA
15:00 6.9 -1.2 57 0.0 25 10   96.80     LegendNANA
16:00 6.0 -1.6 58 0.0 23 6   96.77     LegendNANA
17:00 3.6 -1.5 69 0.0 23 7   96.78     LegendNANA
18:00 1.1 -2.2 79 0.0 23 8   96.80     LegendNANA
19:00 0.3 -2.6 81 0.0 24 8   96.77     LegendNANA
20:00 -2.6 -4.0 90 0.0 20 2   96.78   -3 LegendNANA
21:00 -3.0 -3.7 95 0.0 15 4   96.74   -5 LegendNANA
22:00 -4.6 -5.8 91 0.2 18 3   96.66   -6 LegendNANA
23:00 -5.3 -6.3 93 0.0 8 8   96.61   -9 LegendNANA

Notes on Data Quality.

Legend

  • E = Estimated
  • M = Missing
  • NA = Not Available*
  • [empty] = Indicates an unobserved value
Date modified: